Alyeska Resort
Hourly Weather - Mid Mountian Site
ALY_MID_HR 7/23/2016
CLICK TO VIEW GRAPH!!

        DATE  TIME   Air   H2o   H2o   New  Snow  BATT   Rel
                    Temp  Inch Since  Snow Depth  Volt  Hum%
                      F   1HR  0600   1HR         AVG   AVG

   7/23/2016 10:00    53  0.00  0.00  33.3  3.94 13.18    98
   7/23/2016 09:00    52  0.00  0.00  33.3  4.69 13.18    99
   7/23/2016 08:00    52  0.00  0.00  32.8  4.69 13.18    98
   7/23/2016 07:00    52  0.00  0.00  32.5  6.10 13.18    98
   7/23/2016 06:00    51  0.00  0.52  32.5  5.17 13.18    98
   7/23/2016 05:00    51  0.00  0.52  32.3  4.11 13.18    98
   7/23/2016 04:00    51  0.01  0.52  31.9  9.29 13.18    98
   7/23/2016 03:00    51  0.00  0.51  31.8  5.28 13.18    98
   7/23/2016 02:00    51  0.01  0.51  31.6  6.08 13.17    98
   7/23/2016 01:00    52  0.00  0.50  31.5  8.47 13.17    98
   7/22/2016 24:00    52  0.01  0.50  31.5  5.14 13.17    98
   7/22/2016 23:00    52  0.00  0.49  31.5  4.93 13.16    98
   7/22/2016 22:00    53  0.02  0.49  31.8  5.21 13.16    98
   7/22/2016 21:00    53  0.03  0.47  32.1  4.23 13.15    98
   7/22/2016 20:00    53  0.07  0.44  32.5  4.36 13.15    98
   7/22/2016 19:00    53  0.06  0.37  33.0  2.06 13.15    98
   7/22/2016 18:00    54  0.05  0.31  33.3  4.51 13.15    98
   7/22/2016 17:00    54  0.05  0.26  33.3  2.89 13.15    98
   7/22/2016 16:00    54  0.03  0.21  33.1  2.84 13.15    97
   7/22/2016 15:00    55  0.00  0.18  32.5  7.97 13.15    98
   7/22/2016 14:00    54  0.01  0.18  31.7  6.38 13.15    98
   7/22/2016 13:00    54  0.02  0.17  31.0  3.26 13.15    97
   7/22/2016 12:00    54  0.07  0.15  29.8  2.10 13.16    98
   7/22/2016 11:00    53  0.07  0.08  29.5  4.22 13.16    98


CLICK TO VIEW GRAPH!!